Zurück zum Katalog

FENGYUN 1C DEB

AktivPO
NORAD 37441·DEBRIS·🇨🇳 China

Gestartet May 10, 1999 von Taiyuan Satellite Launch Center

Loading…

Nächste Überflüge (nächste 24 Stunden)

TLE

AktuellSource: Space-Track

Epoche: Sep 12, 2026, 06:48 UTC

1 37441U 99025EHK 26255.28333525  .00000556  00000-0  82118-3 0  9994
2 37441  99.1461  70.8348 0508069 122.1220 243.0251 13.14715920857661

Verfolge FENGYUN 1C DEB in Echtzeit mit AllMySat

Download on the App Store